CW3224 Weather Reports


time (UTC)temp
F
wind
direction
speed
knots
gust
knots
rain 1hr
in
rain 24hr
in
rain mn
in
humidity
%
barometer
mb
20260510164753 69 220 2.6 7.8 0.00 0.37 0.00 69 1011.4
20260510163753 69 241 3.5 10.4 0.00 0.37 0.00 70 1011.7
20260510162751 69 220 2.6 8.7 0.00 0.38 0.00 69 1011.8
20260510162226 68 124 3.5 7.8 0.00 0.38 0.00 70 1011.8
20260510160750 67 301 3.5 10.4 0.00 0.39 0.00 73 1011.8
20260510155749 67 182 2.6 7.8 0.00 0.40 0.00 71 1011.8
20260510154749 66 301 1.7 4.3 0.00 0.40 0.00 76 1011.8
20260510153749 65 164 1.7 6.1 0.00 0.41 0.00 75 1012.0
20260510152749 64 154 1.7 5.2 0.00 0.41 0.00 80 1012.1
20260510151750 63 301 2.6 7.0 0.00 0.41 0.00 81 1012.1
20260510151225 61 123 2.6 6.1 0.00 0.41 0.00 81 1012.2
20260510145738 60 120 2.6 7.0 0.00 0.42 0.00 84 1012.2
20260510144736 59 301 0.9 4.3 0.00 0.42 0.00 86 1012.2
20260510143738 58 301 1.7 5.2 0.00 0.42 0.00 87 1012.3
20260510142735 57 143 0.9 3.5 0.00 0.43 0.00 89 1012.4
20260510141735 56 301 1.7 5.2 0.00 0.44 0.00 90 1012.4
20260510140736 56 301 0.9 4.3 0.00 0.44 0.00 90 1012.3
20260510135736 55 301 0.9 3.5 0.00 0.45 0.00 92 1012.3
20260510135150 54 301 0.9 3.5 0.00 0.46 0.00 94 1012.3
20260510134804 55 301 1.7 4.3 0.00 0.45 0.00 93 1012.3
20260510132733 54 301 1.7 5.2 0.00 0.47 0.00 94 1012.4
20260510131734 54 209 0.9 3.5 0.00 0.47 0.00 95 1012.4
20260510130733 53 301 0.9 3.5 0.00 0.47 0.00 94 1012.3
20260510125728 53 301 0.0 0.0 0.00 0.47 0.00 95 1012.4
20260510124725 53 301 0.0 2.6 0.00 0.48 0.00 95 1012.4
20260510123722 53 301 0.9 3.5 0.00 0.48 0.00 95 1012.3
20260510122720 52 301 2.6 7.0 0.00 0.48 0.00 95 1012.4
20260510121721 53 301 1.7 5.2 0.00 0.48 0.00 95 1012.4
20260510120715 52 301 1.7 4.3 0.00 0.48 0.00 95 1012.3
20260510115715 52 301 1.7 3.5 0.00 0.48 0.00 95 1012.3
20260510114714 51 301 0.9 4.3 0.00 0.48 0.00 95 1012.3
20260510113713 51 301 1.7 3.5 0.00 0.48 0.00 95 1012.1
20260510112713 50 301 0.9 3.5 0.00 0.48 0.00 95 1012.2
20260510111711 50 200 0.9 1.7 0.00 0.48 0.00 95 1012.2
20260510110710 50 202 0.9 4.3 0.00 0.48 0.00 95 1012.0
20260510105711 50 142 0.9 3.5 0.00 0.48 0.00 95 1011.8
20260510104710 50 175 0.9 4.3 0.00 0.48 0.00 95 1011.8
20260510103711 49 301 0.0 0.0 0.00 0.48 0.00 95 1011.7
20260510102711 49 301 0.0 0.0 0.00 0.48 0.00 95 1011.3
20260510101708 48 301 0.0 0.0 0.00 0.48 0.00 94 1011.3
20260510100710 48 301 0.0 0.0 0.00 0.48 0.00 94 1011.5
20260510095710 47 161 0.0 0.0 0.00 0.48 0.00 94 1011.5
20260510094708 46 151 0.0 0.0 0.00 0.48 0.00 94 1011.5
20260510093709 46 94 0.0 0.0 0.00 0.48 0.00 94 1011.6
20260510092709 46 95 0.0 0.0 0.00 0.48 0.00 94 1011.4
20260510091654 46 94 0.0 0.0 0.00 0.48 0.00 94 1011.4
20260510090654 46 94 0.0 0.0 0.00 0.48 0.00 94 1011.3
20260510085654 45 94 0.0 0.0 0.00 0.48 0.00 94 1011.3
20260510084655 45 94 0.0 0.0 0.00 0.48 0.00 94 1011.3
20260510083654 45 94 0.0 0.0 0.00 0.48 0.00 94 1011.3
20260510083043 45 94 0.0 0.0 0.00 0.48 0.00 94 1011.4
20260510082715 45 94 0.0 0.0 0.00 0.48 0.00 94 1011.4
20260510080644 44 94 0.0 0.0 0.00 0.48 0.00 93 1011.2
20260510075643 44 94 0.0 0.0 0.00 0.48 0.00 93 1011.3
20260510075128 45 94 0.0 0.0 0.00 0.48 0.00 93 1011.3
20260510073644 45 94 0.0 0.0 0.00 0.48 0.00 93 1011.1
20260510072645 45 94 0.0 0.0 0.00 0.48 0.00 93 1010.8
20260510071638 46 94 0.0 0.0 0.00 0.48 0.00 93 1010.8
20260510070638 46 94 0.0 0.0 0.00 0.48 0.00 93 1010.7
20260510065638 47 94 0.0 0.0 0.00 0.48 0.00 93 1010.6
20260510064636 47 94 0.0 0.0 0.00 0.48 0.00 93 1010.6
20260510063636 47 94 0.0 0.0 0.00 0.48 0.00 93 1011.1
20260510062635 47 94 0.0 0.0 0.00 0.48 0.00 94 1010.8
20260510061636 47 94 0.0 0.0 0.00 0.48 0.00 94 1010.8
20260510061116 47 94 0.0 0.0 0.00 0.48 0.00 94 1011.2
20260510055635 47 94 0.0 0.0 0.00 0.48 0.00 94 1011.2
20260510055602 47 94 0.0 0.0 0.00 0.48 0.00 94 1011.2
20260510054103 47 94 0.0 0.0 0.00 0.48 0.00 93 1011.3
20260510053124 47 94 0.0 0.0 0.00 0.48 0.00 93 1011.6
20260510052111 47 94 0.0 0.0 0.00 0.48 0.00 93 1011.6
20260510050622 47 94 0.0 0.0 0.00 0.48 0.00 93 1011.5
20260510045621 47 94 0.0 0.0 0.00 0.48 0.00 93 1011.4
20260510044623 47 94 0.0 0.0 0.00 0.48 0.00 93 1011.4
20260510043623 47 94 0.0 0.0 0.00 0.48 0.00 93 1011.7
20260510042616 47 94 0.0 0.0 0.00 0.48 0.00 93 1011.6
20260510041615 47 94 0.0 0.0 0.00 0.48 0.00 93 1011.6
20260510040614 47 94 0.0 0.0 0.00 0.48 0.00 93 1011.7
20260510035614 47 94 0.0 0.0 0.00 0.48 0.48 93 1011.7
20260510034608 47 94 0.0 0.0 0.00 0.48 0.48 93 1011.7
20260510033607 47 94 0.0 0.0 0.00 0.48 0.48 93 1011.6
20260510033046 47 94 0.0 0.0 0.00 0.48 0.48 93 1011.8
20260510031606 47 94 0.0 0.0 0.00 0.48 0.48 93 1011.8
20260510030606 47 94 0.0 0.0 0.00 0.48 0.48 93 1012.1
20260510030043 47 94 0.0 0.0 0.00 0.48 0.48 93 1012.3
20260510024604 47 94 0.0 0.0 0.00 0.48 0.48 93 1012.3
20260510023606 47 94 0.0 0.0 0.00 0.48 0.48 93 1012.2
20260510023044 47 94 0.0 0.0 0.00 0.48 0.48 93 1012.3
20260510021604 47 94 0.0 0.0 0.00 0.48 0.48 93 1012.3
20260510021102 47 94 0.0 0.0 0.00 0.48 0.48 93 1012.3
20260510015603 47 94 0.0 0.0 0.00 0.48 0.48 93 1012.3
20260510014603 47 94 0.0 0.0 0.00 0.48 0.48 93 1012.3
20260510014522 47 94 0.0 0.0 0.01 0.48 0.48 93 1012.3
20260510012603 47 94 0.0 0.9 0.01 0.48 0.48 93 1012.3
20260510011602 47 94 0.0 2.6 0.02 0.48 0.48 93 1012.3
20260510010556 47 95 0.9 2.6 0.02 0.48 0.48 93 1012.1
20260510005555 47 125 0.0 2.6 0.02 0.48 0.48 93 1011.9
20260510004555 47 126 0.0 0.0 0.02 0.48 0.48 93 1011.9
20260510003555 47 126 0.0 0.0 0.02 0.47 0.47 92 1011.8
20260510002554 47 126 0.0 0.0 0.02 0.47 0.47 92 1012.1
20260510001551 47 126 0.0 1.7 0.02 0.46 0.46 92 1012.1
20260510000552 47 126 0.0 1.7 0.03 0.46 0.46 92 1012.3
20260509235551 47 126 0.0 2.6 0.04 0.46 0.46 92 1012.3
20260509234549 47 122 0.9 2.6 0.05 0.46 0.46 92 1012.3
20260509234026 47 122 0.0 1.7 0.05 0.45 0.45 92 1012.3
20260509232547 47 122 0.0 0.0 0.05 0.45 0.45 92 1012.2
20260509231547 47 122 0.9 2.6 0.05 0.44 0.44 92 1012.2
20260509230547 47 120 0.9 1.7 0.05 0.43 0.43 92 1011.9
20260509225546 47 121 0.0 2.6 0.04 0.42 0.42 92 1011.9
20260509225025 47 116 0.0 2.6 0.03 0.41 0.41 92 1011.9
20260509223547 47 100 0.9 2.6 0.03 0.40 0.41 92 1011.9
20260509222546 47 85 0.0 2.6 0.05 0.40 0.40 92 1012.2
20260509221547 48 59 0.9 2.6 0.09 0.39 0.39 92 1012.2
20260509220546 48 58 0.9 2.6 0.13 0.38 0.38 92 1012.2
20260509215533 48 43 0.9 4.3 0.16 0.38 0.38 92 1012.3
20260509215019 48 23 0.9 2.6 0.18 0.38 0.38 92 1012.3
20260509213532 48 21 1.7 4.3 0.19 0.37 0.37 92 1012.4
20260509212532 48 24 0.9 2.6 0.18 0.34 0.35 92 1012.5
20260509211532 48 24 0.9 2.6 0.14 0.30 0.30 92 1012.5
20260509210533 48 24 0.9 2.6 0.09 0.25 0.25 91 1012.5
20260509210008 48 31 0.9 2.6 0.06 0.22 0.22 91 1012.4
20260509204523 48 29 0.9 2.6 0.05 0.20 0.20 91 1012.4
20260509203523 48 42 0.9 2.6 0.03 0.18 0.18 91 1012.4
20260509202522 48 42 0.9 2.6 0.01 0.16 0.17 91 1012.3
20260509201523 48 42 1.7 4.3 0.01 0.16 0.16 91 1012.4
20260509200520 49 50 0.9 2.6 0.01 0.16 0.16 91 1012.4
20260509195522 49 50 0.9 2.6 0.00 0.15 0.16 91 1012.6
20260509194520 49 34 0.9 2.6 0.00 0.15 0.15 91 1012.3
20260509193520 49 34 0.9 2.6 0.00 0.15 0.15 91 1012.3
20260509193004 49 4 0.9 5.2 0.00 0.15 0.15 91 1012.1
20260509191521 49 358 1.7 5.2 0.00 0.15 0.15 91 1012.7
20260509190510 48 54 0.9 2.6 0.00 0.15 0.15 91 1012.7
20260509185510 48 52 2.6 5.2 0.00 0.15 0.15 91 1012.3
20260509184511 48 69 1.7 3.5 0.01 0.15 0.15 91 1012.8
20260509183510 48 72 1.7 3.5 0.02 0.15 0.15 91 1012.8
20260509182511 47 354 0.0 4.3 0.02 0.15 0.15 91 1013.0
20260509181511 47 301 0.0 0.0 0.03 0.15 0.15 91 1013.3
20260509180456 47 301 0.0 0.0 0.03 0.15 0.15 91 1013.3
20260509175457 47 301 0.0 0.0 0.03 0.15 0.15 91 1013.4
20260509174457 47 83 0.0 0.0 0.03 0.14 0.14 91 1013.4
20260509173455 47 42 0.0 0.0 0.03 0.13 0.14 91 1013.4
20260509172455 47 35 0.0 0.0 0.03 0.13 0.13 91 1013.4
20260509171453 46 33 0.0 0.0 0.03 0.12 0.12 91 1013.9
20260509170452 46 301 0.0 0.0 0.04 0.12 0.12 90 1013.9
20260509165452 46 301 0.0 0.0 0.04 0.12 0.12 90 1013.9